CST,Max TemperatureF,Mean TemperatureF,Min TemperatureF,Max Dew PointF,MeanDew PointF,Min DewpointF,Max Humidity, Mean Humidity, Min Humidity, Max Sea Level PressureIn, Mean Sea Level PressureIn, Min Sea Level PressureIn, Max VisibilityMiles, Mean VisibilityMiles, Min VisibilityMiles, Max Wind SpeedMPH, Mean Wind SpeedMPH, Max Gust SpeedMPH,PrecipitationIn, CloudCover, Events, WindDirDegrees
2013-11-1,90,82,73,73,70,65,91,75,51,29.96,29.86,29.81,10,9,4,13,3,16,0.00,2,,110
2013-11-2,80,68,57,68,46,32,83,46,19,30.24,30.15,29.97,10,9,7,15,8,25,0.00,1,,9
2013-11-3,81,66,50,54,47,44,82,55,28,30.21,30.09,29.98,10,9,7,12,2,17,0.00,0,,120
2013-11-4,83,70,57,62,58,53,88,64,40,30.03,29.96,29.89,10,9,5,17,3,23,0.00,2,,139
2013-11-5,87,78,70,70,67,62,85,69,47,29.97,29.92,29.86,10,9,7,17,7,28,0.00,4,,145
2013-11-6,84,74,64,72,69,62,92,81,56,30.19,30.02,29.93,10,8,4,17,4,22,0.60,6,Rain-Thunderstorm,107
2013-11-7,68,60,52,62,45,34,90,63,29,30.40,30.33,30.19,10,9,7,16,12,23,0.11,6,Rain,338
2013-11-8,75,64,54,58,51,42,91,67,48,30.35,30.24,30.14,10,9,5,12,7,,0.00,2,,349
2013-11-9,80,68,56,62,58,54,92,72,45,30.16,30.11,30.07,10,8,7,6,2,,0.00,4,,44
2013-11-10,82,74,67,65,63,60,88,73,48,30.22,30.17,30.12,10,9,5,15,3,21,0.00,6,,39
2013-11-11,82,73,64,68,63,59,88,76,55,30.21,30.16,30.10,10,9,7,12,5,,0.01,7,Rain,28
2013-11-12,75,67,59,65,57,48,87,67,46,30.49,30.30,30.16,10,10,7,21,9,29,0.00,5,,20
2013-11-13,59,53,47,48,37,24,70,54,29,30.58,30.48,30.38,10,8,5,18,12,28,0.00,4,,358
2013-11-14,65,56,47,54,44,36,80,66,57,30.38,30.19,30.05,10,8,5,10,4,,0.00,1,Rain,331
2013-11-15,81,65,49,62,53,46,89,68,39,30.05,29.96,29.87,10,8,5,10,3,,0.00,0,,169
2013-11-16,84,74,64,71,67,61,93,79,60,29.93,29.84,29.77,10,8,2,16,7,24,0.00,3,,160
2013-11-17,90,81,72,70,69,66,89,73,45,29.92,29.84,29.78,10,8,7,17,10,25,0.00,1,,169
2013-11-18,84,78,72,71,70,69,91,81,63,30.02,29.96,29.91,10,6,4,10,5,18,0.00,7,,90
2013-11-19,79,74,69,70,67,66,92,81,64,30.02,29.96,29.91,10,6,2,13,7,20,0.00,7,Rain,16
2013-11-20,86,76,66,71,67,64,93,78,52,29.94,29.90,29.82,10,7,2,14,4,18,0.00,5,,154
2013-11-21,88,80,73,72,70,66,91,74,49,30.01,29.94,29.88,10,9,7,21,11,28,0.00,5,,151
2013-11-22,85,65,45,73,62,43,91,84,60,30.32,30.09,29.98,10,6,2,26,9,38,1.34,7,Rain-Thunderstorm,111
2013-11-23,48,45,42,43,41,39,92,86,75,30.41,30.35,30.29,10,7,3,18,15,28,0.00,8,Rain,336
2013-11-24,48,46,43,43,42,41,92,88,81,30.40,30.34,30.25,10,6,3,17,13,22,0.02,8,Rain,334
2013-11-25,46,44,41,44,41,39,93,90,85,30.25,30.12,30.03,10,5,2,16,12,22,0.34,8,Rain-Thunderstorm,337
2013-11-26,57,50,42,43,39,36,91,71,46,30.39,30.25,30.14,10,8,5,26,11,36,0.11,3,Rain,334
2013-11-27,59,49,39,37,33,27,84,58,32,30.48,30.40,30.34,10,8,5,16,8,22,0.00,0,,344
2013-11-28,64,50,35,51,40,32,93,71,34,30.42,30.37,30.31,10,8,5,7,2,,0.00,0,,22
2013-11-29,74,59,44,56,50,43,93,75,48,30.43,30.36,30.31,10,8,4,8,3,,0.00,4,,29
2013-11-30,74,64,54,61,58,53,94,83,61,30.34,30.27,30.20,10,7,0,16,2,20,0.00,7,Fog-Rain,115